CAPE
19 16 7 6 4 5 5 3 2 0 0 0 0 0 0 0 0 0 0 0 0 0 0 0 0 0 0 0 0 0 0 0 0 0 0 0 0 0 0 0 0 0 5 0 0
7 5 4 2 1 3 5 3 0 0 0 0 0 0 0 0 0 0 0 0 0 0 0 0 0 0 0 0 0 0 0 0 0 0 0 0 0 0 0 0 0 0 0 0 0
9 4 0 1 1 2 4 1 0 0 0 0 0 0 0 0 0 0 0 0 0 0 0 0 0 0 0 0 0 0 0 0 0 0 0 0 0 0 0 0 0 0 0 0 0
8 1 2 3 0 1 1 0 0 0 0 0 0 0 0 0 0 0 0 0 0 0 0 0 0 0 0 0 0 0 0 0 0 0 0 0 0 0 0 0 0 0 0 0 0
4 0 2 3 1 1 0 0 0 0 0 0 0 0 0 0 0 0 0 0 0 0 0 0 0 0 0 0 0 0 0 0 0 0 0 0 0 0 0 0 0 0 0 0 0
1 0 1 0 1 0 0 0 0 0 0 0 0 0 0 0 0 0 0 0 0 0 0 0 0 0 0 0 0 0 0 0 0 0 0 0 0 0 0 0 0 0 0 0 0
0 0 1 0 0 0 0 0 0 0 0 0 0 0 0 0 0 0 0 0 0 0 0 0 0 0 0 0 0 0 0 0 0 0 0 0 0 0 0 0 0 0 0 0 0
0 0 0 0 0 0 0 0 0 0 0 0 0 0 0 0 0 0 0 0 0 0 0 0 0 0 0 0 0 0 0 0 0 0 0 0 0 0 0 0 0 0 0 0 0
0 0 0 0 0 0 0 0 0 0 0 0 0 0 0 0 0 0 0 0 0 0 0 0 0 0 0 0 0 0 0 0 0 0 0 0 0 0 0 0 0 0 0 0 0
0 0 0 0 0 0 0 0 0 0 0 0 0 0 0 0 0 0 0 0 0 0 0 0 0 0 0 0 0 0 0 0 0 0 0 0 0 0 0 0 0 0 0 0 0
0 0 0 0 0 0 0 0 0 0 0 0 0 0 0 0 0 0 0 0 0 0 0 0 0 0 0 0 0 0 0 0 0 0 0 0 0 0 0 0 0 0 0 0 0
0 0 0 0 0 0 0 0 0 0 0 0 0 0 0 0 0 0 0 0 0 0 0 0 0 0 0 0 0 0 0 0 0 0 0 0 0 0 0 0 0 0 0 0 0
0 0 0 0 0 0 0 0 0 0 0 0 0 0 0 0 0 0 0 0 0 0 0 0 0 0 0 0 0 0 0 0 0 0 0 0 0 0 0 0 0 0 0 0 0
0 0 0 0 0 0 0 0 0 0 0 0 0 0 0 0 0 0 0 0 0 0 0 0 0 0 0 0 0 0 0 0 0 0 0 0 0 0 0 0 0 0 0 0 0
0 0 0 0 0 0 0 0 0 0 0 0 0 0 0 0 0 0 0 0 0 0 0 0 0 0 0 0 0 0 0 0 0 0 1 0 0 0 0 0 0 0 0 0 0
0 0 0 0 0 0 0 0 0 0 0 0 0 0 0 0 0 0 0 0 0 0 0 0 0 0 0 0 0 0 0 0 0 0 0 0 0 0 0 0 0 0 0 0 0
0 0 0 0 0 0 0 0 0 0 0 0 0 0 0 0 0 0 0 0 0 0 0 0 0 0 0 0 0 0 0 0 0 0 0 0 0 0 0 0 0 0 0 0 0
0 0 0 0 0 0 0 0 0 0 0 0 0 0 0 0 0 0 0 0 0 0 0 0 0 0 0 0 0 0 0 0 0 0 0 0 0 0 0 0 0 0 0 0 0
0 0 0 0 0 0 0 0 0 0 0 0 0 0 0 0 0 0 0 0 0 0 0 0 0 0 0 0 0 0 0 0 0 0 0 0 0 0 0 0 0 0 0 2 0
0 0 0 0 0 0 0 0 0 0 0 0 0 0 0 0 0 0 0 0 0 0 0 0 0 0 0 0 0 0 0 0 0 0 0 0 0 0 0 0 0 2 6 10 0
0 0 0 0 0 0 0 0 0 0 0 0 0 0 0 0 0 0 0 0 0 0 0 0 0 0 0 0 0 0 0 0 0 0 0 0 0 0 0 0 1 4 12 2 5
0 0 0 0 0 0 0 0 0 0 0 0 0 0 0 0 0 0 0 0 0 0 0 0 0 0 0 0 0 0 0 0 0 0 0 1 0 0 0 0 0 3 3 2 3
0 0 0 0 0 0 0 0 0 0 0 0 0 0 0 0 0 0 0 0 0 0 0 0 0 0 0 0 0 0 0 0 0 0 0 0 0 0 0 0 0 4 0 2 4
0 0 0 0 0 0 0 0 0 0 0 0 0 0 0 0 0 0 0 0 0 0 0 0 0 0 0 0 0 0 0 0 0 0 0 0 0 0 0 0 1 0 1 4 6
0 0 0 0 0 0 0 0 0 0 0 0 0 0 0 0 0 0 0 0 0 0 0 0 0 0 0 0 0 0 0 0 0 0 0 0 0 0 0 0 1 1 2 4 4
0 0 0 0 0 0 0 0 0 0 0 0 0 0 0 0 0 0 0 0 0 0 0 0 0 0 0 0 0 0 0 0 0 0 0 0 0 0 0 0 0 0 0 1 0
0 0 0 0 0 0 0 0 0 0 0 0 0 0 0 0 0 0 0 0 0 0 0 0 0 0 0 0 0 0 0 0 0 0 0 0 0 0 0 0 0 0 0 0 0
CIN
0 0 0 0 0 0 0 0 0 0 0 0 0 0 0 0 0 0 0 0 0 0 0 0 0 0 0 0 0 0 0 0 0 0 0 0 0 0 0 0 0 0 -57 0 -33
0 0 0 0 0 0 0 0 0 0 0 0 0 0 0 0 0 0 0 0 0 0 0 0 0 0 0 0 0 0 0 0 0 0 0 0 0 0 0 0 0 0 0 0 0
0 0 0 0 0 0 0 0 0 0 0 0 0 0 0 0 0 0 0 0 0 0 0 0 0 0 0 0 0 0 0 0 0 0 0 0 0 0 0 0 0 0 0 0 0
0 0 0 0 0 0 0 0 0 0 0 0 0 0 0 0 0 0 0 0 0 0 0 0 0 0 0 0 0 0 0 0 0 0 0 0 0 0 0 0 0 0 0 0 0
0 0 0 0 0 0 0 0 0 0 0 0 0 0 0 0 0 0 0 0 0 0 0 0 0 0 0 0 0 0 0 0 0 0 0 0 0 0 0 0 0 0 0 0 0
0 0 0 0 0 0 0 0 0 0 0 0 0 0 0 0 0 0 0 0 0 0 0 0 0 0 0 0 0 0 0 0 0 0 0 0 0 0 0 0 0 0 0 0 0
0 0 0 0 0 0 0 0 0 0 0 0 0 0 0 0 0 0 0 0 0 0 0 0 0 0 0 0 0 0 0 0 0 0 0 0 0 0 0 0 0 0 0 0 0
0 0 0 0 0 0 0 0 0 0 0 0 0 0 0 0 0 0 0 0 0 0 0 0 0 0 0 0 0 0 0 0 0 0 0 0 0 0 0 0 0 0 0 0 0
0 0 0 0 0 0 0 0 0 0 0 0 0 0 0 0 0 0 0 0 0 0 0 0 0 0 0 0 0 0 0 0 0 0 0 0 0 0 0 0 0 0 0 0 0
0 0 0 0 0 0 0 0 0 0 0 0 0 0 0 0 0 0 0 0 0 0 0 0 0 0 0 0 0 0 0 0 0 0 0 0 0 0 0 0 0 0 0 0 0
0 0 0 0 0 0 0 0 0 0 0 0 0 0 0 0 0 0 0 0 0 0 0 0 0 0 0 0 0 0 0 0 0 0 0 0 0 0 0 0 0 0 0 0 0
0 0 0 0 0 0 0 0 0 0 0 0 0 0 0 0 0 0 0 0 0 0 0 0 0 0 0 0 0 0 0 0 0 0 0 0 0 0 0 0 0 0 0 0 0
0 0 0 0 0 0 0 0 0 0 0 0 0 0 0 0 0 0 0 0 0 0 0 0 0 0 0 0 0 0 0 0 0 0 0 0 0 0 0 0 0 0 0 0 0
0 0 0 0 0 0 0 0 0 0 0 0 0 0 0 0 0 0 0 0 0 0 0 0 0 0 0 0 0 0 0 0 0 0 0 0 0 0 0 0 0 0 0 0 0
0 0 0 0 0 0 0 0 0 0 0 0 0 0 0 0 0 0 0 0 0 0 0 0 0 0 0 0 0 0 0 0 0 0 0 0 0 0 0 0 0 0 0 0 0
0 0 0 0 0 0 0 0 0 0 0 0 0 0 0 0 0 0 0 0 0 0 0 0 0 0 0 0 0 0 0 0 0 0 0 0 0 0 0 0 0 0 0 0 0
0 0 0 0 0 0 0 0 0 0 0 0 0 0 0 0 0 0 0 0 0 0 0 0 0 0 0 0 0 0 0 0 0 0 0 0 0 0 0 0 0 0 0 0 0
0 0 0 0 0 0 0 0 0 0 0 0 0 0 0 0 0 0 0 0 0 0 0 0 0 0 0 0 0 0 0 0 0 0 0 0 0 0 0 0 0 0 0 0 0
0 0 0 0 0 0 0 0 0 0 0 0 0 0 0 0 0 0 0 0 0 0 0 0 0 0 0 0 0 0 0 0 0 0 0 0 0 0 0 0 0 0 0 0 -1
0 0 0 0 0 0 0 0 0 0 0 0 0 0 0 0 0 0 0 0 0 0 0 0 0 0 0 0 0 0 0 0 0 0 0 0 0 0 0 0 0 0 0 0 0
0 0 0 0 0 0 0 0 0 0 0 0 0 0 0 0 0 0 0 0 0 0 0 0 0 0 0 0 0 0 0 0 0 0 0 -1 0 0 0 0 0 0 0 0 0
0 0 0 0 0 0 0 0 0 0 0 0 0 0 0 0 0 0 0 0 0 0 0 0 0 0 0 0 0 0 0 0 0 0 0 0 0 0 0 -2 0 0 0 0 0
0 0 0 0 0 0 0 0 0 0 0 0 0 0 0 0 0 0 0 0 0 0 0 0 0 0 0 0 0 0 0 0 0 0 0 0 0 0 0 0 0 0 0 0 0
0 0 0 0 0 0 0 0 0 0 0 0 0 0 0 0 0 0 0 0 0 0 0 0 0 0 0 0 0 0 0 0 0 0 0 0 0 0 -4 0 0 0 0 0 0
0 0 0 0 0 0 0 0 0 0 0 0 0 0 0 0 0 0 0 0 0 0 0 0 0 0 0 0 0 0 0 0 0 0 0 0 0 0 -1 0 0 0 0 0 0
0 0 0 0 0 0 0 0 0 0 0 0 0 0 0 0 0 0 0 0 0 0 0 0 0 0 0 0 0 0 0 0 0 0 0 0 0 0 0 0 0 0 0 0 0
0 0 0 0 0 0 0 0 0 0 0 0 0 0 0 0 0 0 0 0 0 0 0 0 0 0 0 0 0 0 0 0 0 0 0 0 0 0 0 0 0 0 0 0 0
Wind_Speed
12 12 13 13 14 14 14 15 15 14 14 13 12 12 11 9 5 7 12 9 12 19 13 6 5 5 3 3 3 3 1 4 4 4 2 7 9 5 5 3 5 4 1 5 5
11 12 13 13 13 14 15 15 16 15 14 13 13 13 9 2 2 9 12 19 17 16 6 8 6 7 5 5 5 4 2 4 3 4 4 9 3 8 7 8 6 13 1 6 2
11 12 13 13 13 13 14 15 15 15 14 13 13 14 6 1 5 6 15 21 17 11 1 2 1 2 6 4 5 3 3 3 2 3 5 5 6 3 4 5 4 8 17 11 6
11 12 12 13 13 13 14 14 15 14 14 13 13 12 4 3 4 6 19 20 12 6 7 9 7 5 5 4 3 0 1 1 6 6 6 6 5 5 7 7 9 12 14 11 13
11 12 12 13 13 14 14 15 15 14 12 11 13 10 4 8 2 6 18 15 5 6 8 5 8 3 4 1 2 3 5 7 7 7 6 7 4 6 12 13 9 8 9 11 12
11 11 12 12 13 14 16 16 15 13 10 10 12 3 6 7 5 7 9 8 7 5 7 8 3 3 5 2 3 3 3 8 4 7 5 5 10 2 5 4 11 14 17 13 12
10 11 13 13 13 14 15 17 15 12 9 7 7 4 8 4 4 7 7 3 4 2 3 3 2 5 1 2 3 3 5 7 0 4 5 7 3 3 8 7 13 16 17 13 12
10 11 13 13 14 17 18 16 12 9 7 6 5 4 3 2 3 6 7 3 6 3 1 3 3 5 5 3 5 5 5 6 7 8 4 5 7 8 16 14 22 20 17 17 12
9 10 12 13 14 16 19 13 6 5 4 5 3 3 2 6 7 6 5 4 5 4 6 3 5 4 7 4 4 7 3 4 10 2 3 3 16 17 23 18 17 16 18 14 13
8 10 12 13 15 17 14 6 6 5 5 2 3 4 7 6 6 8 5 4 5 3 5 9 6 5 5 7 2 5 4 4 9 6 5 15 18 23 23 14 15 12 11 8 8
8 9 11 12 15 17 8 4 7 5 11 4 1 1 3 8 3 7 4 5 4 10 6 6 7 4 3 2 5 3 4 10 13 11 6 12 20 26 19 14 6 5 5 7 8
7 8 8 11 14 14 3 6 1 2 5 2 1 2 2 2 5 9 6 7 7 5 6 5 3 1 5 4 3 2 7 8 10 4 7 14 25 21 11 5 2 2 5 6 8
7 8 7 9 8 6 4 3 2 1 4 3 2 3 4 5 3 9 7 3 5 5 5 1 1 3 3 2 4 3 4 5 6 16 2 6 10 6 4 1 3 1 3 5 9
5 5 9 7 6 1 3 3 1 1 6 4 3 3 2 2 3 3 5 2 5 4 3 3 3 3 3 2 1 6 3 7 12 9 5 6 8 7 3 6 2 5 7 6 9
3 3 7 8 4 4 2 4 1 4 5 2 5 2 3 6 4 3 5 5 3 4 3 2 4 4 2 2 2 9 8 14 9 5 5 1 4 11 3 1 2 7 11 11 10
2 1 2 4 3 1 1 2 3 10 7 4 3 6 3 6 5 6 6 7 1 2 1 5 3 3 3 6 3 8 7 9 1 0 3 4 3 10 4 2 2 6 10 10 12
6 5 4 1 2 2 3 4 8 7 3 6 2 4 2 6 5 8 5 8 6 8 9 8 1 3 2 5 2 10 7 6 8 6 6 2 5 13 3 4 4 9 14 9 15
11 7 5 2 1 3 4 8 5 3 7 0 2 2 2 5 3 6 3 4 6 6 3 4 10 4 4 1 3 4 3 5 5 4 11 15 8 8 5 4 5 15 15 22 19
12 2 3 2 1 3 7 5 9 8 6 8 2 6 5 2 1 2 3 3 2 3 5 3 8 3 2 2 3 5 2 5 6 2 4 5 8 9 4 7 18 18 22 23 18
4 4 1 1 2 5 7 6 4 2 5 4 5 2 4 4 0 3 1 3 4 2 3 2 6 1 5 2 1 4 3 5 4 5 7 7 8 10 5 14 20 22 23 17 20
4 4 2 2 2 6 4 7 4 3 3 4 6 4 4 3 1 1 3 3 2 3 2 4 4 6 2 1 2 5 4 2 2 2 4 8 8 3 6 18 22 23 17 20 20
3 2 1 2 4 1 3 6 4 4 2 2 4 4 6 6 3 2 4 5 3 3 4 3 4 6 8 3 3 1 4 4 4 5 4 5 11 4 13 20 27 26 18 20 20
3 3 1 1 5 3 3 1 3 5 5 5 4 1 3 5 1 3 4 2 2 5 5 4 3 5 11 6 3 2 3 2 1 0 8 4 11 14 23 24 24 15 21 19 20
4 4 3 1 2 7 6 4 4 2 3 4 4 4 4 2 2 5 4 2 2 3 3 6 3 8 9 7 2 6 6 7 5 4 4 11 21 27 25 26 24 16 19 19 18
4 4 3 6 6 5 6 7 6 7 1 4 1 6 7 4 1 4 2 2 1 2 3 4 4 4 9 17 9 14 17 12 10 13 6 10 17 27 21 23 18 18 19 19 19
8 7 2 2 4 10 8 10 11 5 9 6 5 9 7 7 8 10 7 4 6 3 5 1 4 3 7 4 3 10 17 16 15 12 16 19 22 10 20 18 12 19 19 19 18
2 4 5 2 3 7 7 7 11 10 4 2 8 6 6 8 6 2 2 5 6 8 6 5 1 3 8 6 10 5 7 6 4 6 6 6 11 17 19 17 10 18 18 18 17
Wind_Direction
350 2 354 352 348 348 350 351 350 350 352 350 350 349 344 340 343 10 43 342 341 336 341 313 9 1 57 76 40 137 135 232 237 199 288 8 358 340 309 250 343 321 283 327 355
1 352 349 347 345 346 347 347 345 346 348 348 353 350 346 346 51 43 2 354 347 347 7 7 2 356 41 24 20 61 162 245 25 12 346 325 338 330 336 344 307 300 27 6 49
354 349 345 344 343 345 343 344 340 347 345 347 352 349 1 90 61 330 343 348 345 354 342 350 318 61 68 37 359 351 199 325 240 316 350 285 296 312 283 277 254 306 307 325 315
348 346 345 344 344 339 339 336 338 346 344 345 348 351 51 23 65 284 340 341 343 352 29 28 30 53 73 68 336 98 69 353 306 337 330 301 312 291 244 266 293 314 312 305 310
345 343 338 338 339 335 334 333 338 334 336 342 351 354 62 42 41 321 335 339 4 9 34 48 48 63 82 40 9 47 330 318 312 304 277 284 290 264 278 284 304 306 319 314 312
342 340 334 335 336 333 330 330 328 321 325 341 353 23 69 70 274 336 336 347 12 17 19 33 74 73 99 85 76 287 288 293 317 302 307 351 295 222 263 307 314 310 306 297 288
339 335 329 331 332 330 326 325 320 313 313 334 9 66 65 162 323 320 354 309 330 17 50 28 50 76 139 83 311 326 360 336 286 333 304 319 358 235 246 298 297 298 298 291 280
337 335 330 331 332 327 325 321 316 307 313 340 42 73 105 278 281 348 339 328 359 47 54 33 56 92 47 339 25 41 53 357 300 341 311 38 280 270 291 290 295 305 296 293 278
334 335 332 333 332 327 328 317 316 312 341 355 44 81 32 329 8 320 32 338 305 2 21 46 60 68 7 32 29 24 294 298 312 354 271 48 294 284 287 295 297 296 302 302 302
333 336 333 334 332 331 324 300 331 14 354 14 65 46 17 311 303 324 327 359 27 353 17 34 47 64 25 26 338 305 328 259 274 281 340 293 282 290 291 298 295 305 313 330 333
333 336 338 337 333 342 350 22 20 353 41 80 298 128 320 295 281 341 347 5 16 56 23 355 56 37 335 258 233 233 238 259 269 278 295 289 296 286 303 301 296 329 2 341 323
327 328 343 337 336 350 48 76 116 232 84 37 299 355 283 329 1 338 19 54 44 39 346 18 57 325 290 255 260 242 274 281 283 252 325 306 289 287 305 285 204 116 329 312 313
321 323 338 337 355 31 50 93 331 251 87 22 30 10 325 10 25 331 22 53 60 47 24 116 19 322 304 319 347 272 240 290 289 321 312 324 283 332 324 347 174 302 280 302 303
312 328 349 335 57 355 20 319 53 26 71 303 335 359 352 349 72 334 4 55 43 28 350 220 333 340 320 25 358 308 185 289 300 333 296 69 287 295 283 294 82 302 322 318 317
309 330 40 37 143 68 324 318 320 69 25 290 318 317 349 75 289 5 331 17 77 334 36 301 340 330 344 322 325 257 320 293 302 278 305 225 253 272 321 154 304 313 326 316 322
177 315 14 26 49 150 301 305 24 46 265 333 324 343 17 17 11 310 16 38 108 82 292 263 295 255 284 295 272 296 314 317 102 29 275 233 179 277 272 228 308 283 294 296 318
140 92 70 42 154 22 359 32 44 122 353 295 347 16 66 349 3 22 49 24 38 33 0 326 264 297 346 318 3 12 5 345 356 5 235 151 283 252 247 217 241 312 331 314 315
128 97 30 72 300 95 66 45 91 205 217 320 37 21 78 350 17 3 71 58 40 63 71 37 329 14 355 57 298 345 65 129 285 295 292 280 234 257 193 225 276 328 338 330 321
127 55 70 309 117 70 75 60 210 199 164 151 57 74 322 316 283 67 63 127 97 99 122 45 277 323 263 272 133 286 4 195 260 248 279 267 282 288 212 316 340 337 324 320 320
115 104 174 290 111 66 78 233 196 187 131 111 152 119 186 265 238 64 3 251 131 122 144 162 312 225 279 294 203 150 306 12 358 310 294 266 280 270 311 337 322 330 324 323 322
90 103 180 138 79 50 171 218 208 221 133 136 178 133 216 220 169 185 196 238 140 150 116 133 124 279 343 222 187 344 351 346 266 234 272 305 291 236 1 328 333 330 327 330 326
141 134 174 169 71 353 182 185 167 149 170 96 108 118 168 167 136 166 190 199 133 138 146 167 172 275 254 259 281 265 224 152 127 301 268 268 270 296 336 340 336 327 337 332 328
114 101 9 263 152 221 294 167 196 145 181 161 152 128 146 169 70 201 225 199 171 161 163 186 287 335 344 4 13 246 189 183 106 77 238 273 277 315 328 336 332 330 336 332 330
129 128 336 333 277 144 145 204 191 228 152 137 126 108 109 69 353 198 219 199 155 185 185 159 175 178 204 218 109 287 273 279 161 242 268 247 287 312 328 330 331 342 336 333 334
138 194 180 196 231 170 157 144 144 179 190 173 111 212 167 135 263 231 241 187 143 217 129 149 229 202 257 267 272 268 266 258 209 230 251 274 300 304 333 326 329 338 333 338 342
140 148 134 283 165 137 169 208 175 177 156 213 203 186 180 163 192 198 150 201 180 162 146 88 273 315 288 300 171 273 266 258 245 248 251 265 282 341 328 321 338 342 342 344 345
216 110 101 153 193 140 199 184 194 145 239 150 166 132 192 229 152 52 70 105 155 147 163 152 135 34 271 335 309 322 230 208 239 207 201 271 297 328 321 328 349 343 349 345 347